Regional Weather Roundup
Issued by NWS

Home | Current Version | Previous Version | Text Only | Print | Product List | Glossary On
Versions: 1 2 3 4 5 6 7 8 9 10 11 12 13 14 15 16 17 18 19 20 21 22 23 24 25 26 27 28
000
ASUS45 KTFX 242310
RWRMT
MONTANA REGIONAL WEATHER ROUNDUP
NATIONAL WEATHER SERVICE GREAT FALLS MT
500 PM MDT MON APR 24 2017

NOTE: "FAIR" INDICATES FEW OR NO CLOUDS BELOW 12000 FEET WITH NO
SIGNIFICANT WEATHER AND/OR OBSTRUCTIONS TO VISIBILITY.

MTZ001>007-043-250000-
WEST OF THE DIVIDE

CITY           SKY/WX    TMP DP  RH WIND       PRES   REMARKS
KALISPELL      PTSUNNY   53  38  56 NW5       29.62S
MISSOULA       CLOUDY    53  35  50 SW6       29.60F
BUTTE          CLOUDY    46  30  53 W12       29.58F
MULLAN PASS    CLOUDY    36  31  82 VRB3      29.64S
ANACONDA         N/A     45  30  57 SW6       29.60F
DEER LODGE       N/A     46  32  57 W12G21    29.61S
EUREKA           N/A     46  37  71 CALM      29.65S
HAMILTON         N/A     48  37  66 S8        29.60R
LIBBY            N/A     54  36  50 NW5       29.61S
$$

MTZ008-052>055-250000-
SOUTHWEST MONTANA

CITY           SKY/WX    TMP DP  RH WIND       PRES   REMARKS
BOZEMAN        CLOUDY    53  33  46 N7        29.56F
DILLON         CLOUDY    48  29  47 W3        29.56S
W YELLOWSTONE  CLOUDY    36  32  87 SW10      29.61F WCI  28
ENNIS          SUNNY     48  30  49 S7        29.62S
THREE FORKS      N/A     55  55 100 CALM      29.60F
$$

MTZ009-010-012-014-046-048-049-054-250000-
EAST SLOPES AND CENTRAL MONTANA

CITY           SKY/WX    TMP DP  RH WIND       PRES   REMARKS
CUT BANK       PTSUNNY   47  35  63 NE13      29.60S
GREAT FALLS    CLOUDY    53  32  44 E7        29.57S
MALMSTROM AFB  CLOUDY    54  34  46 NE5       29.57S
HELENA         CLOUDY    55  32  41 N12       29.56S
AUGUSTA        PTSUNNY   50  29  44 N3        29.58S
BOWMANS CRNR   PTSUNNY   47  32  55 NW18      29.56S
CHOTEAU          N/A     52  30  43 VRB3G13   29.60S
FAIRFIELD      PTSUNNY   52  34  50 N15       29.57R
POWER          PTSUNNY   51  35  52 N17       29.57S
RAYNESFORD     LGT RAIN  50  37  62 E12       29.57S
ULM            PTSUNNY   55  28  35 NW7       29.57S
$$

MTZ011-013-016-021-045-047-050-051-250000-
NORTH CENTRAL MONTANA

CITY           SKY/WX    TMP DP  RH WIND       PRES   REMARKS
HAVRE          PTSUNNY   55  36  48 N7        29.60F
LEWISTOWN      PTSUNNY   46  38  73 E14       29.60S
N BAR RANCH    RAIN      37  36  93 NW13G22   29.64R WCI  29
CHINOOK          N/A     55  37  50 E7        29.61S
DENTON         PTSUNNY   49  40  70 MISG      29.55F
FORT BENTON      N/A    N/A N/A N/A MISG      29.58
GEYSER           N/A     50  37  59 E10       29.58S
GRASS RANGE    SHOWER    43  39  86 SW14      29.59R
JUDITH GAP       N/A     46  37  69 N16       29.58F
STANFORD       PTSUNNY   47  37  68 E5        29.59F
WINIFRED       PTSUNNY   48  41  77 E16       29.59R
$$

MTZ017>020-022>027-061-062-250000-
NORTHEAST MONTANA

CITY           SKY/WX    TMP DP  RH WIND       PRES   REMARKS
GLASGOW        CLOUDY    45  32  60 E21       29.68S
JORDAN           N/A     49  38  65 E12       29.63S
SIDNEY         CLOUDY    38  30  73 N10       29.72S WCI  31
WOLF POINT     CLOUDY    40  30  67 NE13      29.73S
MALTA          CLOUDY    50  37  62 NE12      29.65S
PLENTYWOOD       N/A     30  27  86 NE13      29.76R WCI  20
POPLAR           N/A     36  27  69 NE15      29.75R WCI  26
$$

MTZ028>42-056>058-250000-
SOUTHCENTRAL AND SOUTHEAST MONTANA

CITY           SKY/WX    TMP DP  RH WIND       PRES   REMARKS
BAKER          CLOUDY    47  36  65 N9        29.63F
BILLINGS       CLOUDY    54  39  57 NE9       29.55F
LIVINGSTON     CLOUDY    51  34  52 MISG      29.55S
MILES CITY     MOSUNNY   54  39  57 NE9       29.61S
BIG TIMBER     CLOUDY    52  36  54 NE10      29.57S
EKALAKA          N/A     46  36  68 N9        29.64F
LAUREL           N/A     53  38  56 CALM      29.58R
ROUNDUP          N/A     51  37  58 N10       29.54S
$$

REGIONAL REPORTS...DAKOTAS

CITY           SKY/WX    TMP DP  RH WIND       PRES   REMARKS
WILLISTON      CLOUDY    36  27  69 NE12      29.75R WCI  28
MINOT          CLOUDY    34  29  82 N13       29.73R WCI  25
DICKINSON      CLOUDY    36  31  82 NE13      29.65S WCI  27
BEACH          CLOUDY    41  37  87 N13G20    29.69R
TIOGA          CLOUDY    30  30 100 E15       29.75S WCI  19
WATFORD CITY   CLOUDY    34  30  86 NE13      29.72R WCI  25
BISMARCK       CLOUDY    38  32  79 N13       29.69R WCI  30
GRAND FORKS    DRIZZLE   36  34  92 N18       29.62S WCI  26
FARGO          CLOUDY    44  42  93 NW20      29.54R
BUFFALO SD       N/A     52  39  61 N15       29.54R
RAPID CITY     MOSUNNY   59  39  47 N15       29.57F
$$

REGIONAL REPORTS...WYOMING/IDAHO/WASHINGTON

CITY           SKY/WX    TMP DP  RH WIND       PRES   REMARKS
GILLETTE       PTSUNNY   57  37  47 NE8       29.54F
SHERIDAN       CLOUDY    55  39  54 E6        29.54F
BUFFALO WY     CLOUDY    56  35  45 NW5       29.55F
CODY           LGT RAIN  44  39  82 N12       29.57S
YELLOWSTONE LA   N/A     33  32  96 VRB3      29.63S
IDAHO FALLS    CLOUDY    44  41  89 S15       29.63F
SALMON         CLOUDY    43  37  81 S3        29.62R
BOISE          LGT RAIN  50  43  77 W10       29.70S
SPOKANE        PTSUNNY   50  36  58 SW8       29.68S
$$

REGIONAL REPORTS...ALBERTA

CITY           SKY/WX    TMP DP  RH WIND       PRES   REMARKS
EDMONTON       MIX PCPN  34  32  93 N5        29.78R
CALGARY        CLOUDY    39  34  81 NE10      29.68S
LETHBRIDGE     PTSUNNY   46  37  71 NE15      29.65S
MEDICINE HAT   PTSUNNY   48  39  71 NE14      29.65S
WATERTON GATE    N/A     41  36  81 NE14        N/A
CARDSTON         N/A     45  37  76 NE5         N/A
MILK RIVER       N/A     48  37  66 N14         N/A
$$

REGIONAL REPORTS...SASKATCHEWAN

CITY           SKY/WX    TMP DP  RH WIND       PRES   REMARKS
SWIFT CURRENT  CLOUDY    34  27  75 E14G22    29.73R WCI  24
REGINA         CLOUDY    30  23  74 E16       29.84R WCI  19
SASKATOON      CLOUDY    32  25  74 E16       29.90R WCI  21
CYPRESS HILLS    N/A     37  36  93 SE5         N/A
VAL MARIE        N/A     41  34  75 E14         N/A
ROCKGLEN         N/A     30  25  80 NE3         N/A
ASSINIBOIA       N/A     37  36  93 E7          N/A
$$




USA.gov is the U.S. government's official web portal to all federal, state and local government web resources and services.